Find Starlink 31322

NORAD ID: 59168 Int'l Des: 2024-044 Owner: SPXS Country: US Constellation: starlink operational
LEOCIRCULAR

Current View

Loading 3D Globe...

About Starlink 31322

Starlink 31322 (NORAD 59168) is a starlink constellation satellite (v2 mini) launched Mar 4, 2024 by SPXS of US. It operates in LEO, CIRCULAR orbit with a mass of 730.00 kg.

About Starlink 31322

Description loading...

Upcoming Passes

Passes for default location (London). Set your location on the main map for personalized predictions.

Altitude History

Loading altitude history...

Two-Line Element Set

1 59168U 24044S 26165.60412971 .00000185 00000-0 16258-4 0 9993
2 59168 43.0019 280.0200 0001516 266.5455 93.5223 15.27575488128418
Epoch: Jun 14, 2026 • Age: 31 hours

Current Status

Altitude 495.1 km
Velocity 7.62 km/s
Sub-Earth Point -42.47°S, 55.73°W
Launch Date Mar 4, 2024
Age 2.2 years
Type internet

Technical Details

Classification Payload
Mass 730.00 kg
Dry Mass 700.00 kg
Total Mass 730.00 kg
Length 0.30 m
Diameter 4.10 m
Span 29.00 m
Shape Box + pan
Manufacturer SPXS
Bus Type Starlink V2M
Phase Status In Orbit
Owner/State SPXS/US

Most Searched